• In Netherlands
  • List of Countries
  • For 7 days
  • Water Temperature
  • Satellite Maps
  • Weather Map
  • Weather Widgets
  • user-avatar
    Login

    Hourly Weather Sidi Bu-l-Abbas

    Today, 20 February, Monday

    Time Temperature Precipitation Wind Pressure Humidity
    00:00 +9°C° 0 mm 3 mps 721 mmHg 94%
    01:00 +9°C° 0 mm 3 mps 720 mmHg 93%
    02:00 +9°C° 0 mm 3 mps 720 mmHg 93%
    03:00 +8°C° 0 mm 3 mps 720 mmHg 93%
    04:00 +8°C° 0 mm 3 mps 720 mmHg 93%
    05:00 +8°C° 0 mm 3 mps 720 mmHg 92%
    06:00 +7°C° 0 mm 3 mps 720 mmHg 92%
    07:00 +8°C° 0 mm 4 mps 720 mmHg 84%
    08:00 +11°C° 0 mm 4 mps 720 mmHg 76%
    09:00 +12°C° 0 mm 5 mps 721 mmHg 68%
    10:00 +14°C° 0 mm 5 mps 721 mmHg 60%
    11:00 +16°C° 0 mm 5 mps 721 mmHg 52%
    12:00 +19°C° 0 mm 6 mps 721 mmHg 44%
    13:00 +20°C° 0 mm 6 mps 720 mmHg 42%
    14:00 +21°C° 0 mm 6 mps 720 mmHg 41%
    15:00 +21°C° 0 mm 6 mps 720 mmHg 40%
    16:00 +19°C° 0 mm 6 mps 719 mmHg 48%
    17:00 +16°C° 0 mm 5 mps 719 mmHg 56%
    18:00 +14°C° 0 mm 5 mps 719 mmHg 64%
    19:00 +13°C° 0 mm 5 mps 719 mmHg 65%
    20:00 +12°C° 0 mm 4 mps 720 mmHg 65%
    21:00 +11°C° 0 mm 4 mps 720 mmHg 66%
    22:00 +11°C° 0 mm 4 mps 720 mmHg 64%
    23:00 +11°C° 0 mm 4 mps 720 mmHg 63%

    Tomorrow, 21 February, Tuesday

    Time Temperature Precipitation Wind Pressure Humidity
    00:00 +10°C° 0 mm 4 mps 720 mmHg 61%
    01:00 +10°C° 0 mm 3 mps 720 mmHg 62%
    02:00 +10°C° 0 mm 3 mps 720 mmHg 62%
    03:00 +9°C° 0 mm 3 mps 720 mmHg 62%
    04:00 +9°C° 0 mm 3 mps 720 mmHg 63%
    05:00 +9°C° 0 mm 3 mps 720 mmHg 63%
    06:00 +8°C° 0 mm 3 mps 720 mmHg 63%
    07:00 +10°C° 0 mm 3 mps 720 mmHg 58%
    08:00 +12°C° 0 mm 3 mps 721 mmHg 52%
    09:00 +14°C° 0 mm 3 mps 721 mmHg 47%
    10:00 +18°C° 0 mm 4 mps 721 mmHg 42%
    11:00 +20°C° 0 mm 4 mps 721 mmHg 37%
    12:00 +22°C° 0 mm 4 mps 721 mmHg 32%
    13:00 +23°C° 0 mm 5 mps 720 mmHg 32%
    14:00 +23°C° 0 mm 5 mps 720 mmHg 32%
    15:00 +23°C° 0 mm 5 mps 719 mmHg 32%
    16:00 +21°C° 0.1 mm 5 mps 719 mmHg 43%
    17:00 +18°C° 0.1 mm 4 mps 719 mmHg 54%
    18:00 +14°C° 0.1 mm 3 mps 719 mmHg 66%
    19:00 +13°C° 0.1 mm 3 mps 719 mmHg 67%
    20:00 +13°C° 0.1 mm 3 mps 719 mmHg 67%
    21:00 +12°C° 0.1 mm 3 mps 720 mmHg 68%
    22:00 +12°C° 0 mm 3 mps 720 mmHg 67%
    23:00 +12°C° 0 mm 3 mps 720 mmHg 66%

    Day after tomorrow, 22 February, Wednesday

    Time Temperature Precipitation Wind Pressure Humidity
    00:00 +12°C° 0 mm 3 mps 720 mmHg 65%
    01:00 +12°C° 0.1 mm 2 mps 719 mmHg 66%
    02:00 +12°C° 0.1 mm 2 mps 719 mmHg 66%
    03:00 +12°C° 0.1 mm 2 mps 719 mmHg 66%
    04:00 +10°C° 0 mm 2 mps 719 mmHg 67%
    05:00 +10°C° 0 mm 2 mps 719 mmHg 68%
    06:00 +10°C° 0 mm 2 mps 719 mmHg 69%
    07:00 +13°C° 0 mm 2 mps 719 mmHg 63%
    08:00 +15°C° 0 mm 2 mps 720 mmHg 56%
    09:00 +17°C° 0 mm 2 mps 720 mmHg 50%
    10:00 +19°C° 0 mm 3 mps 720 mmHg 45%
    11:00 +21°C° 0 mm 3 mps 720 mmHg 40%
    12:00 +24°C° 0 mm 3 mps 720 mmHg 35%
    13:00 +24°C° 0 mm 3 mps 720 mmHg 37%
    14:00 +23°C° 0 mm 4 mps 719 mmHg 38%
    15:00 +23°C° 0 mm 4 mps 718 mmHg 39%
    16:00 +20°C° 0.1 mm 3 mps 718 mmHg 49%
    17:00 +18°C° 0.1 mm 3 mps 718 mmHg 59%
    18:00 +14°C° 0.1 mm 3 mps 718 mmHg 69%
    19:00 +14°C° 0.3 mm 3 mps 718 mmHg 72%
    20:00 +13°C° 0.3 mm 3 mps 718 mmHg 74%
    21:00 +13°C° 0.3 mm 3 mps 718 mmHg 76%
    22:00 +13°C° 0 mm 3 mps 718 mmHg 77%
    23:00 +12°C° 0 mm 3 mps 718 mmHg 78%

    23 February, Thursday

    Time Temperature Precipitation Wind Pressure Humidity
    00:00 +12°C° 0 mm 3 mps 718 mmHg 78%
    01:00 +12°C° 0 mm 3 mps 717 mmHg 79%
    02:00 +12°C° 0 mm 2 mps 717 mmHg 79%
    03:00 +12°C° 0 mm 2 mps 717 mmHg 80%
    04:00 +10°C° 0 mm 2 mps 717 mmHg 80%
    05:00 +10°C° 0 mm 2 mps 717 mmHg 81%
    06:00 +10°C° 0 mm 2 mps 717 mmHg 81%
    07:00 +13°C° 0.1 mm 2 mps 717 mmHg 75%
    08:00 +15°C° 0.1 mm 2 mps 717 mmHg 68%
    09:00 +16°C° 0.1 mm 2 mps 718 mmHg 62%
    10:00 +18°C° 0.1 mm 2 mps 717 mmHg 57%
    11:00 +19°C° 0.1 mm 3 mps 717 mmHg 53%
    12:00 +20°C° 0.1 mm 3 mps 717 mmHg 48%
    13:00 +19°C° 0.3 mm 3 mps 717 mmHg 54%
    14:00 +18°C° 0.3 mm 4 mps 716 mmHg 60%
    15:00 +17°C° 0.3 mm 5 mps 716 mmHg 67%
    16:00 +15°C° 0.3 mm 4 mps 716 mmHg 74%
    17:00 +14°C° 0.3 mm 4 mps 716 mmHg 81%
    18:00 +12°C° 0.3 mm 4 mps 716 mmHg 89%
    19:00 +12°C° 0.2 mm 3 mps 717 mmHg 90%
    20:00 +11°C° 0.2 mm 3 mps 717 mmHg 91%
    21:00 +11°C° 0.2 mm 3 mps 718 mmHg 92%
    22:00 +11°C° 0 mm 3 mps 718 mmHg 92%
    23:00 +12°C° 0 mm 2 mps 718 mmHg 92%

    24 February, Friday

    Time Temperature Precipitation Wind Pressure Humidity
    00:00 +10°C° 0 mm 2 mps 718 mmHg 92%
    01:00 +10°C° 0 mm 2 mps 718 mmHg 90%
    02:00 +12°C° 0 mm 2 mps 718 mmHg 89%
    03:00 +12°C° 0 mm 2 mps 717 mmHg 87%
    04:00 +12°C° 0.3 mm 2 mps 717 mmHg 87%
    05:00 +10°C° 0.3 mm 2 mps 718 mmHg 86%
    06:00 +10°C° 0.3 mm 2 mps 718 mmHg 86%
    07:00 +11°C° 1 mm 3 mps 718 mmHg 84%
    08:00 +11°C° 1 mm 3 mps 719 mmHg 83%
    09:00 +11°C° 1 mm 3 mps 719 mmHg 82%
    10:00 +12°C° 0.9 mm 3 mps 719 mmHg 82%
    11:00 +12°C° 0.9 mm 3 mps 719 mmHg 83%
    12:00 +12°C° 0.9 mm 4 mps 719 mmHg 83%
    13:00 +12°C° 0.4 mm 4 mps 719 mmHg 84%
    14:00 +12°C° 0.4 mm 4 mps 719 mmHg 85%
    15:00 +12°C° 0.4 mm 3 mps 719 mmHg 85%
    16:00 +12°C° 0.3 mm 3 mps 719 mmHg 88%
    17:00 +12°C° 0.3 mm 2 mps 720 mmHg 91%
    18:00 +12°C° 0.3 mm 2 mps 720 mmHg 94%
    19:00 +12°C° 0.1 mm 2 mps 721 mmHg 94%
    20:00 +10°C° 0.1 mm 2 mps 721 mmHg 94%
    21:00 +10°C° 0.1 mm 2 mps 722 mmHg 94%
    22:00 +10°C° 0 mm 2 mps 722 mmHg 93%
    23:00 +9°C° 0 mm 2 mps 722 mmHg 93%

    25 February, Saturday

    Time Temperature Precipitation Wind Pressure Humidity
    00:00 +9°C° 0 mm 2 mps 722 mmHg 92%
    01:00 +10°C° 0 mm 1 mps 722 mmHg 92%
    02:00 +9°C° 0 mm 1 mps 722 mmHg 92%
    03:00 +9°C° 0 mm 1 mps 721 mmHg 92%
    04:00 +8°C° 0 mm 1 mps 722 mmHg 92%
    05:00 +8°C° 0 mm 1 mps 722 mmHg 92%
    06:00 +8°C° 0 mm 1 mps 722 mmHg 91%
    07:00 +10°C° 0 mm 1 mps 723 mmHg 85%
    08:00 +13°C° 0 mm 1 mps 723 mmHg 78%
    09:00 +15°C° 0 mm 1 mps 724 mmHg 71%
    10:00 +18°C° 0 mm 1 mps 724 mmHg 65%
    11:00 +19°C° 0 mm 1 mps 724 mmHg 58%
    12:00 +21°C° 0 mm 1 mps 724 mmHg 52%
    13:00 +21°C° 0 mm 1 mps 723 mmHg 52%
    14:00 +20°C° 0 mm 2 mps 723 mmHg 52%
    15:00 +20°C° 0 mm 2 mps 723 mmHg 52%
    16:00 +17°C° 0 mm 2 mps 722 mmHg 63%
    17:00 +15°C° 0 mm 1 mps 722 mmHg 75%
    18:00 +13°C° 0 mm 1 mps 722 mmHg 87%
    19:00 +12°C° 0 mm 1 mps 722 mmHg 88%
    20:00 +11°C° 0 mm 1 mps 722 mmHg 89%
    21:00 +9°C° 0 mm 0 mps 723 mmHg 90%
    22:00 +10°C° 0 mm 1 mps 723 mmHg 90%
    23:00 +10°C° 0 mm 1 mps 723 mmHg 90%
    Show more